Location: Napoli
(40.8330°N, 14.2500°E)
Time: 06:13:48
(UTC+02:00)

ISS - Visible Passes

Search period start: 21 July 2018 00:00
Search period end: 31 July 2018 00:00
Orbit: 402 x 408 km, 51.6° (Epoch: 21 July)

Date Brightness Start Highest point End Pass type
(mag) Time Alt. Az. Time Alt. Az. Time Alt. Az.
21 Jul -0.4 01:25:58 10° NNW 01:27:35 13° N 01:29:10 10° NNE visible
21 Jul -1.5 03:02:06 10° NW 03:04:56 25° NNE 03:07:45 10° E visible
21 Jul -3.6 04:38:22 10° WNW 04:41:34 48° SW 04:44:45 10° SE visible
21 Jul -3.8 21:17:50 10° SW 21:21:02 56° SE 21:24:15 10° ENE visible
21 Jul -1.3 22:55:01 10° WNW 22:57:43 23° NNW 23:00:27 10° NNE visible
22 Jul -0.4 00:33:33 10° NNW 00:35:06 13° N 00:36:40 10° NNE visible
22 Jul -1.0 02:10:08 10° NNW 02:12:35 19° NNE 02:15:01 10° ENE visible
22 Jul -3.9 03:46:09 10° NW 03:49:28 86° NE 03:52:45 10° SE visible
22 Jul -2.0 22:02:22 10° W 22:05:24 34° NNW 22:08:28 10° NE visible
22 Jul -0.5 23:40:51 10° NW 23:42:38 14° N 23:44:26 10° NNE visible
23 Jul -0.7 01:18:09 10° NNW 01:20:11 15° NNE 01:20:50 14° NNE visible
23 Jul -3.1 21:09:56 10° WSW 21:13:09 59° NW 21:16:25 10° NE visible
23 Jul -0.7 22:48:01 10° NW 22:50:11 16° NNW 22:52:22 10° NNE visible
24 Jul -0.6 00:26:01 10° NNW 00:27:42 13° N 00:29:05 11° NNE visible
24 Jul -1.1 21:55:12 10° WNW 21:57:46 21° NNW 22:00:21 10° NNE visible
24 Jul -0.6 23:33:40 10° NNW 23:35:12 13° N 23:36:44 10° NNE visible
25 Jul -0.6 01:10:04 10° NNW 01:10:39 13° NNW 01:10:39 13° NNW visible
25 Jul -1.7 21:02:28 10° W 21:05:24 29° NNW 21:08:20 10° NE visible
25 Jul -0.7 22:41:01 10° NW 22:42:41 13° N 22:44:22 10° NNE visible
26 Jul -0.8 00:18:03 10° NNW 00:19:51 16° N 00:19:51 16° N visible
26 Jul -0.8 21:48:11 10° NW 21:50:11 15° NNW 21:52:12 10° NNE visible
26 Jul -0.8 23:25:56 10° NNW 23:27:43 14° N 23:29:08 11° NE visible
27 Jul -1.0 20:55:17 10° WNW 20:57:43 19° NNW 21:00:09 10° NNE visible
27 Jul -0.8 22:33:38 10° NNW 22:35:11 13° N 22:36:44 10° NNE visible
28 Jul -0.8 00:09:51 10° NNW 00:11:04 17° NNW 00:11:04 17° NNW visible
28 Jul -0.8 21:41:02 10° NNW 21:42:38 13° N 21:44:13 10° NNE visible
28 Jul -1.3 23:17:49 10° NNW 23:20:07 17° NNE 23:20:27 17° NNE visible
29 Jul -1.0 22:25:43 10° NNW 22:27:36 14° N 22:29:30 10° NE visible
30 Jul -0.8 00:01:37 10° NW 00:02:28 16° NW 00:02:28 16° NW visible
30 Jul -0.9 21:33:27 10° NNW 21:35:02 13° N 21:36:38 10° NNE visible
30 Jul -1.7 23:09:32 10° NW 23:11:53 25° N 23:11:53 25° N visible
